Melbourne Airport, Victoria

2:06 PM AEST on July 30, 2016 (GMT +1000)
Melbourne International

Weather History for YMML - June, 2013

Change the Weather History Date:

Monday, June 3, 2013

  Actual Average Record
Temperature  
Mean Temperature 52 °F -  
Max Temperature 57 °F 55 °F 66 °F (2005)
Min Temperature 48 °F 42 °F 39 °F (1997)
Degree Days  
Heating Degree Days 12    
Growing Degree Days 2 (Base 50)    
Moisture  
Dew Point 47 °F    
Average Humidity 78    
Maximum Humidity 94    
Minimum Humidity 50    
Precipitation  
Precipitation 0.00 in 0.05 in - ()
Sea Level Pressure  
Sea Level Pressure 30.25 in    
Wind  
Wind Speed 9 mph ()    
Max Wind Speed 15 mph    
Max Gust Speed -    
Visibility 7.8 miles    
Events      
Averages and records for this station are not official NWS values.
T = Trace of Precipitation, MM = Missing Value Source: Averaged Metar Reports

Daily Weather History Graph

Daily Weather History Graph

Search for Another Location

Airport or City:

Trip Planner

Search our weather history database for the weather conditions in past years. The results will help you decide how hot, cold, wet, or windy it might be!

Date:

Astronomy

Jun. 03, 2013 Rise Set
Actual Time 7:27 AM AEST 5:09 PM AEST
Civil Twilight 6:58 AM AEST 5:38 PM AEST
Nautical Twilight 6:26 AM AEST 6:11 PM AEST
Astronomical Twilight 5:54 AM AEST 6:42 PM AEST
Moon 2:05 AM AEST (6/3) 1:46 PM AEST (6/3)
Length of Visible Light 10h 39m
Length of Day
9h 41m
Waning Crescent, 27% of the Moon is Illuminated
Jun 3
Waning Crescent
Jun 9
New
Jun 17
First Quarter
Jun 23
Full
Jun 30
Last Quarter

Hourly Weather History & Observations

Time (AEST) Temp. Dew Point Humidity Pressure Visibility Wind Dir Wind Speed Gust Speed Precip Events Conditions
12:00 AM 51 °F 48 °F 86% 30.24 in 19 mi West 11.5 mph - -   Partly Cloudy
12:00 AM 51.8 °F 48.2 °F 88% 30.21 in 6.2 mi West 11.5 mph - N/A   Mostly Cloudy
12:30 AM 51.8 °F 48.2 °F 88% 30.21 in 6.2 mi WSW 10.4 mph - N/A   Mostly Cloudy
1:00 AM 51 °F 48 °F 86% 30.24 in - West 10.4 mph - -  
1:00 AM 51.8 °F 48.2 °F 88% 30.21 in 6.2 mi West 10.4 mph - N/A   Mostly Cloudy
1:30 AM 51.8 °F 48.2 °F 88% 30.21 in 6.2 mi WSW 11.5 mph - N/A   Mostly Cloudy
2:00 AM 50.0 °F 48.2 °F 94% 30.21 in 6.2 mi West 10.4 mph - N/A   Mostly Cloudy
2:30 AM 50.0 °F 46.4 °F 87% 30.21 in 6.2 mi West 11.5 mph - N/A   Mostly Cloudy
3:00 AM 50.0 °F 46.4 °F 87% 30.21 in 6.2 mi WSW 12.7 mph - N/A   Mostly Cloudy
3:30 AM 50.0 °F 44.6 °F 82% 30.21 in 6.2 mi West 10.4 mph - N/A   Mostly Cloudy
4:00 AM 49 °F 44 °F 79% 30.24 in - West 10.4 mph - -  
4:00 AM 48.2 °F 44.6 °F 87% 30.21 in 6.2 mi West 10.4 mph - N/A   Mostly Cloudy
4:30 AM 50.0 °F 44.6 °F 82% 30.21 in 6.2 mi West 9.2 mph - N/A   Mostly Cloudy
5:00 AM 50.0 °F 44.6 °F 82% 30.21 in 6.2 mi West 8.1 mph - N/A   Mostly Cloudy
5:30 AM 50.0 °F 44.6 °F 82% 30.21 in 6.2 mi WSW 8.1 mph - N/A   Mostly Cloudy
6:00 AM 51 °F 44 °F 70% 30.24 in 19 mi WSW 9.2 mph - -   Partly Cloudy
6:00 AM 51.8 °F 44.6 °F 76% 30.21 in 6.2 mi WSW 9.2 mph - N/A   Mostly Cloudy
6:30 AM 51.8 °F 44.6 °F 76% 30.21 in 6.2 mi WSW 8.1 mph - N/A   Mostly Cloudy
7:00 AM 51 °F 44 °F 69% 30.25 in - WSW 9.2 mph - -  
7:00 AM 51.8 °F 44.6 °F 76% 30.24 in 6.2 mi WSW 9.2 mph - N/A   Mostly Cloudy
7:30 AM 50.0 °F 46.4 °F 87% 30.24 in 6.2 mi West 8.1 mph - N/A   Mostly Cloudy
8:00 AM 51.8 °F 46.4 °F 82% 30.24 in 6.2 mi WSW 5.8 mph - N/A   Mostly Cloudy
8:30 AM 51.8 °F 44.6 °F 76% 30.24 in 6.2 mi WSW 6.9 mph - N/A   Mostly Cloudy
9:00 AM 53 °F 46 °F 69% 30.28 in 19 mi SW 12.7 mph - -   Partly Cloudy
9:00 AM 51.8 °F 46.4 °F 82% 30.27 in 6.2 mi SW 12.7 mph - N/A   Mostly Cloudy
9:30 AM 53.6 °F 46.4 °F 77% 30.27 in 6.2 mi SW 10.4 mph - N/A   Mostly Cloudy
10:00 AM 53 °F 46 °F 71% 30.30 in - SSW 9.2 mph - -  
10:00 AM 53.6 °F 46.4 °F 77% 30.27 in 6.2 mi SSW 9.2 mph - N/A   Mostly Cloudy
10:30 AM 53.6 °F 46.4 °F 77% 30.27 in 6.2 mi SSW 11.5 mph - N/A   Mostly Cloudy
11:00 AM 55.4 °F 46.4 °F 72% 30.27 in 6.2 mi WSW 9.2 mph - N/A   Mostly Cloudy
11:30 AM 55.4 °F 42.8 °F 63% 30.27 in 6.2 mi SW 12.7 mph - N/A   Mostly Cloudy
12:00 PM 55 °F 42 °F 50% 30.29 in 19 mi SSW 12.7 mph - -   Partly Cloudy
12:00 PM 55.4 °F 41.0 °F 58% 30.27 in 6.2 mi SSW 12.7 mph - N/A   Mostly Cloudy
12:30 PM 55.4 °F 42.8 °F 63% 30.27 in 6.2 mi SSW 15.0 mph - N/A   Mostly Cloudy
1:00 PM 55 °F 42 °F 52% 30.27 in - SSW 13.8 mph - -  
1:00 PM 55.4 °F 42.8 °F 63% 30.24 in 6.2 mi SSW 13.8 mph - N/A   Mostly Cloudy
1:30 PM 55.4 °F 44.6 °F 67% 30.24 in 6.2 mi SSW 10.4 mph - N/A   Mostly Cloudy
2:00 PM 57.2 °F 44.6 °F 63% 30.24 in 6.2 mi WSW 10.4 mph - N/A   Mostly Cloudy
2:30 PM 57.2 °F 44.6 °F 63% 30.24 in 6.2 mi SSW 8.1 mph - N/A   Mostly Cloudy
3:00 PM 56 °F 45 °F 57% 30.26 in 19 mi SW 8.1 mph - -   Partly Cloudy
3:00 PM 57.2 °F 44.6 °F 63% 30.24 in 6.2 mi SW 8.1 mph - N/A   Mostly Cloudy
3:30 PM 57.2 °F 46.4 °F 67% 30.24 in 6.2 mi SW 5.8 mph - N/A   Mostly Cloudy
4:00 PM 56 °F 46 °F 60% 30.26 in - SW 8.1 mph - -  
4:00 PM 55.4 °F 46.4 °F 72% 30.24 in 6.2 mi SW 8.1 mph - N/A   Mostly Cloudy
4:30 PM 55.4 °F 48.2 °F 77% 30.24 in 6.2 mi SW 9.2 mph - N/A   Mostly Cloudy
5:00 PM 55.4 °F 48.2 °F 77% 30.24 in 6.2 mi SW 6.9 mph - N/A   Mostly Cloudy
5:30 PM 51.8 °F 48.2 °F 88% 30.27 in 6.2 mi SW 4.6 mph - N/A   Mostly Cloudy
6:00 PM 53 °F 48 °F 78% 30.28 in 16 mi Calm Calm - -   Partly Cloudy
6:00 PM 53.6 °F 48.2 °F 82% 30.27 in 6.2 mi Calm Calm - N/A   Mostly Cloudy
6:30 PM 51.8 °F 48.2 °F 88% 30.27 in 6.2 mi Calm Calm - N/A   Mostly Cloudy
7:00 PM 53 °F 49 °F 82% 30.29 in - Calm Calm - -  
7:00 PM 53.6 °F 50.0 °F 88% 30.27 in 6.2 mi Calm Calm - N/A   Mostly Cloudy
7:30 PM 53.6 °F 50.0 °F 88% 30.27 in 6.2 mi Calm Calm - N/A   Mostly Cloudy
8:00 PM 53.6 °F 50.0 °F 88% 30.27 in 6.2 mi Calm Calm - N/A   Mostly Cloudy
8:30 PM 53.6 °F 50.0 °F 88% 30.30 in 6.2 mi West 6.9 mph - N/A   Mostly Cloudy
9:00 PM 53 °F 50 °F 87% 30.31 in 19 mi West 8.1 mph - -   Partly Cloudy
9:00 PM 53.6 °F 50.0 °F 88% 30.30 in 6.2 mi West 8.1 mph - N/A   Mostly Cloudy
9:30 PM 53.6 °F 50.0 °F 88% 30.30 in 6.2 mi WSW 5.8 mph - N/A   Mostly Cloudy
10:00 PM 54 °F 51 °F 86% 30.32 in - WSW 5.8 mph - -  
10:00 PM 53.6 °F 51.8 °F 94% 30.30 in 6.2 mi WSW 5.8 mph - N/A   Mostly Cloudy
10:30 PM 53.6 °F 51.8 °F 94% 30.30 in 6.2 mi WSW 4.6 mph - N/A   Mostly Cloudy
11:00 PM 53.6 °F 51.8 °F 94% 30.30 in 6.2 mi West 4.6 mph - N/A   Mostly Cloudy
11:30 PM 53.6 °F 50.0 °F 88% 30.30 in 6.2 mi WSW 4.6 mph - N/A   Mostly Cloudy